Regional Weather Roundup
Issued by NWS Newport/Morehead, NC

Current Version | Previous Version | Graphics & Text | Print | Product List | Glossary Off
Versions: 1 2 3 4 5 6 7 8 9 10 11 12 13 14 15 16 17 18 19 20 21 22 23 24 25 26 27 28 29 30 31 32 33 34 35 36 37 38 39 40 41 42 43 44 45 46 47 48 49 50

000
ASUS42 KMHX 041925
RWRMHX
WEATHER ROUNDUP FOR EASTERN NORTH CAROLINA
NATIONAL WEATHER SERVICE NEWPORT/MOREHEAD CITY NC
300 PM EDT FRI SEP 04 2015

NOTE: "FAIR" INDICATES FEW OR NO CLOUDS BELOW 12,000 FEET
WITH NO SIGNIFICANT WEATHER AND/OR OBSTRUCTIONS TO VISIBILITY

NCZ015>017-031-032-045>047-102-103-042000-
NORTH COAST

CITY           SKY/WX    TMP DP  RH WIND       PRES   REMARKS
EDENTON        RAIN      82  65  57 SE10G17   29.97R
ELIZABETH CITY LGT RAIN  87  68  52 NE15      29.97S
KITTY HAWK     MOCLDY    85  74  69 NE7       29.96S
MANTEO         MOSUNNY   83  74  75 NE12      29.97F

$$

NCZ045>047-081-094-103-104-042000-
CENTRAL COAST

CITY           SKY/WX    TMP DP  RH WIND       PRES   REMARKS
FRISCO         SUNNY     88  72  58 N7        29.95F
SWANQUARTER      N/A     86 N/A N/A SW3       29.91S

$$

NCZ095-097-098-100-101-042000-
SOUTHERN COAST

CITY           SKY/WX    TMP DP  RH WIND       PRES   REMARKS
BEAUFORT       MOSUNNY   86  75  69 S7        29.95F
CEDAR ISLAND     N/A     84 N/A N/A NW8G14    30.00S
JACKSONVILLE   MOSUNNY   90  68  48 CALM      29.95F
PINEY ISLAND   NOT AVBL
WILMINGTON     SUNNY     90  70  51 E8        29.96F


$$

NCZ011>013-027>030-043-044-078>080-089-090>093-098-042000-
COASTAL PLAIN

CITY           SKY/WX    TMP DP  RH WIND       PRES   REMARKS
AHOSKIE        CLOUDY    86  75  69 CALM      29.95F
CLINTON        MOSUNNY   92  70  47 CALM      29.96F
ELIZABETHTOWN  PTSUNNY   93  66  41 NE3       29.96F
GOLDSBORO      SUNNY     92  70  47 E5        29.95F
GREENVILLE     MOSUNNY   82  70  65 E5        29.99S
HAVELOCK       MOSUNNY   90  69  50 E6        29.96F
KENANSVILLE      N/A     90  66  45 N5        29.97F
KINSTON        SUNNY     90  70  51 NW6       29.96F
NEW BERN       SUNNY     91  70  49 NW6       29.97F
RICHLANDS      MOSUNNY   90  66  45 N5        29.95F
ROCKY MOUNT    PTSUNNY   91  69  48 NE6       29.97S
WASHINGTON     MOSUNNY   84  70  63 NW9G16    29.96R
WHITEVILLE     MOSUNNY   91  69  47 E6        29.95F

$$

AMZ130-135-150-152-154-156-158-170-250-252-270-ANZ085-086-088-633-658-670-042000-
MARINE OBSERVATIONS

STATION/POSITION TIME  TEMP    WIND        PRES    WAVE   SWELL
                       AIR SEA DIR/SP/G            HT/PER HT/PER
                 (UTC) (F)     (DEG/KT/KT) (MB)    (FT/S) (FT/S)
CHESAPEAKE LIGHT 1900   79      50/ 15/ 16 1016.0
64 E VA BEACH    1850   80 80   50/ 12/ 14 1014.7    2/11   2/11
DUCK             1900   80 81   40/ 15/ 18 1014.2
2 E DUCK         1811      81                N/A     2/ 3
OREGON INLET     1900   81 83   20/ 11/ 13 1014.5
13E OREGON INLT  1900      82                N/A     1/11
HATTERAS CG      1900   85 83  330/  5/  6 1013.9
DIAMOND BUOY     1850   83 85  360/  4/  6 1014.2    1/11   2/11
CAPE LOOKOUT     1900   84     110/  3/  4 1014.1
BEAUFORT LAB     1900   86 81  190/  6/  7 1013.7
30 SE NEW RVR IN 1808   83 83   30/  4/  6 1015.1
30 SE NEW RVR IN 1825      83                N/A     1/11
27 SE WRIGHTSVLE 1900   80 83   60/  4/  4   N/A
5 SE WRIGHTSVLE  1808   83 83   90/  6/  8 1015.0
225 S CAPE HAT   1850   83 85   30/  4/  6 1013.7    2/11   2/11
41 SE CHARLESTON 1850   83 86   70/  4/  6 1014.3    1/ 8   2/ 8

$$



USA.gov is the U.S. government's official web portal to all federal, state and local government web resources and services.